Location: Bonac
(42.8765°N, 0.9753°E)
Time: 08:41:03
(UTC+00:00)

NOSS 3-4 (C) - Pass Details

Date: 12 January 2026
Orbit: 773 x 1438 km, 63.4° (Epoch: 26 December)

Event Time Altitude Azimuth Distance (km) Brightness Sun altitude
Rises 19:20:24 0° 239° (WSW) 3,242 7.2 -28.1°
Reaches altitude 10° 19:22:52 10° 247° (WSW) 2,336 6.3 -28.6°
Maximum altitude 19:27:50 40° 316° (NW) 1,199 4.2 -29.5°
Enters shadow 19:29:03 35° 347° (NNW) 1,317 4.2 -29.7°
